Weather in Ust-Alekseyevo

Russia / Vologda Oblast     60°27′37″N   46°30′01″E
temp.,
°C
wind,
m/s
gust,
m/s
humid.,
%
clouds,
%
prec.,
mm/h
press.,
hPa
HPBL,
m
21 april, wed
wed2100:000se268482 0.0 102896
03:00−1se3108423 0.0 1027195
06:00+2ese41366100 0.0 1025421
09:00+7se61443100 0.0 10221083
12:00+10se71637100 0.0 10191390
15:00+6se71660100 0.1 10181280
18:00+4se71578100 0.0 10161022
21:00+2sse61491100 0.1 1016893
22 april, thu
thu2200:00+2sse51496100 0.3 1014683
03:00+2sse51296100 0.4 1014716
06:00+2sse41297100 0.9 1013596
09:00+2s41097100 2.7 1014522
12:00+4ssw4996100 0.1 1016605
15:00+7ssw4875100 0.3 10161104
18:00+7s497994 0.1 1017726
21:00+3s411936 0.1 1019385
23 april, fri
fri2300:00+3s312935 0.0 1019345
03:00+2s310955 0.0 1020258
06:00+4s310895 0.0 1021325
09:00+10s496558 0.0 1021997
12:00+10s5965100 0.0 1021684
15:00+13s575790 0.0 10201499
18:00+10sse4107166 0.0 1021846
21:00+8sse413817 0.0 1021500
24 april, sat
sat2400:00+6sse4129097 0.0 1021370
03:00+6se399299 0.3 1020290
06:00+7se41086100 0.1 1020361
09:00+11se486754 0.2 1019860
12:00+12se575924 0.1 10171243
15:00+12se565899 0.3 10161245
18:00+10ese4862100 0.0 1015817
21:00+8ese41069100 0.0 1014492
25 april, sun
sun2500:00+7e3974100 0.0 1011387
03:00+6e4981100 0.0 1010415
06:00+5e4989100 0.0 1008401
09:00+5e4792100 0.3 1005878
12:00+6ese3692100 0.9 1004843
15:00+6se3593100 2.4 1004981
18:00+4wsw2689100 1.4 1005485
21:00+4ssw2789100 1.5 1005215